This is the latest recevied weather packets stored in our database for station/object EA1JAV-10. If no packets are shown the sender has not sent any weather packets the latest 10 day(s).
| Time | Temp. | Humidity | Pressure | Rain* | Wind** | Luminosity | Snow |
|---|---|---|---|---|---|---|---|
| 1778001994 | 18.89° C | 41% | 1001.8 hPa | - | - | - | - |
| 1778000194 | 18.89° C | 42% | 1001.7 hPa | - | - | - | - |
| 1777998394 | 18.89° C | 43% | 1001.4 hPa | - | - | - | - |
| 1777996594 | 19.44° C | 44% | 1001.5 hPa | - | - | - | - |
| 1777994794 | 18.89° C | 44% | 1001.5 hPa | - | - | - | - |
| 1777992994 | 18.89° C | 44% | 1001.6 hPa | - | - | - | - |
| 1777991194 | 18.33° C | 44% | 1001.9 hPa | - | - | - | - |
| 1777989394 | 18.33° C | 45% | 1002 hPa | - | - | - | - |
| 1777987593 | 18.33° C | 44% | 1001.9 hPa | - | - | - | - |
| 1777985793 | 18.33° C | 45% | 1002 hPa | - | - | - | - |
| 1777983993 | 18.33° C | 45% | 1002 hPa | - | - | - | - |
| 1777982193 | 18.33° C | 45% | 1002.1 hPa | - | - | - | - |
| 1777980393 | 17.78° C | 45% | 1002.3 hPa | - | - | - | - |
| 1777978593 | 17.78° C | 45% | 1002.3 hPa | - | - | - | - |
| 1777976793 | 17.78° C | 44% | 1002.4 hPa | - | - | - | - |
| 1777974993 | 17.78° C | 44% | 1002.2 hPa | - | - | - | - |
| 1777973193 | 17.78° C | 45% | 1002.2 hPa | - | - | - | - |
| 1777971393 | 17.78° C | 45% | 1002.2 hPa | - | - | - | - |
| 1777969593 | 17.78° C | 44% | 1002.2 hPa | - | - | - | - |
| 1777967793 | 17.22° C | 45% | 1002.3 hPa | - | - | - | - |
| 1777965993 | 17.22° C | 45% | 1002.5 hPa | - | - | - | - |
| 1777964192 | 17.78° C | 45% | 1002.2 hPa | - | - | - | - |
| 1777962392 | 17.78° C | 45% | 1002 hPa | - | - | - | - |
| 1777960592 | 17.78° C | 45% | 1002 hPa | - | - | - | - |
| 1777958792 | 17.78° C | 45% | 1001.7 hPa | - | - | - | - |
* Rain since midnight (hover to see other rain measurements)
** Current wind speed in m/s (hover to see current wind gust speed)